Overview Statistics Trail Chart Weather Telemetry Raw packets
 

This is the latest recevied weather packets stored in our database for station/object 4S6DRJ-13. If no packets are shown the sender has not sent any weather packets the latest 10 day(s).

<< 310 311 312 313 314 315 316 >>
Time Temp. Humidity Pressure Rain* Wind** Luminosity Snow
1788008410 28.33° C 81% 1008.8 hPa 0 mm 2.68 m/s, 296° 0 W/m² -
1788008350 28.33° C 81% 1009 hPa 0 mm 0.89 m/s, 265° 0 W/m² -
1788008288 28.33° C 81% 1008.9 hPa 0 mm 0.89 m/s, 217° 0 W/m² -
1788008227 28.33° C 81% 1008.8 hPa 0 mm 0.89 m/s, 275° 1 W/m² -
1788008166 28.33° C 81% 1008.7 hPa 0 mm 2.24 m/s, 226° 1 W/m² -
1788008109 28.33° C 81% 1008.8 hPa 0 mm 0.45 m/s, 241° 1 W/m² -
1788008045 28.33° C 81% 1008.7 hPa 0 mm 0.45 m/s, 256° 1 W/m² -
1788007983 28.33° C 81% 1008.7 hPa 0 mm 0.89 m/s, 206° 1 W/m² -
1788007922 28.33° C 81% 1008.6 hPa 0 mm 0.89 m/s, 251° 2 W/m² -
1788007861 28.33° C 81% 1008.7 hPa 0 mm 1.79 m/s, 213° 2 W/m² -
1788007800 28.33° C 81% 1008.6 hPa 0 mm 1.34 m/s, 257° 2 W/m² -
1788007739 28.33° C 80% 1008.6 hPa 0 mm 1.79 m/s, 294° 3 W/m² -
1788007679 28.89° C 80% 1008.4 hPa 0 mm 1.34 m/s, 275° 3 W/m² -
1788007617 28.89° C 80% 1008.5 hPa 0 mm 1.79 m/s, 147° 3 W/m² -
1788007556 28.89° C 80% 1008.5 hPa 0 mm 2.68 m/s, 253° 4 W/m² -
1788007495 28.89° C 80% 1008.6 hPa 0 mm 1.79 m/s, 256° 4 W/m² -
1788007434 28.89° C 80% 1008.5 hPa 0 mm 1.79 m/s, 254° 4 W/m² -
1788007373 28.89° C 80% 1008.6 hPa 0 mm 1.79 m/s, 328° 5 W/m² -
1788007312 28.89° C 80% 1008.7 hPa 0 mm 0.45 m/s, 274° 5 W/m² -
1788007251 28.89° C 80% 1008.5 hPa 0 mm 0.45 m/s, 241° 6 W/m² -
1788007190 28.89° C 80% 1008.6 hPa 0 mm 0.89 m/s, 285° 6 W/m² -
1788007129 28.89° C 80% 1008.4 hPa 0 mm 0.89 m/s, 192° 7 W/m² -
1788007068 28.89° C 80% 1008.4 hPa 0 mm 0.89 m/s, 228° 7 W/m² -
1788007009 28.89° C 80% 1008.5 hPa 0 mm 1.34 m/s, 292° 8 W/m² -
1788006946 28.89° C 80% 1008.6 hPa 0 mm 0.89 m/s, 310° 9 W/m² -

* Rain latest hour (hover to see other rain measurements)
** Current wind speed in m/s (hover to see current wind gust speed)